Wind_Speed
12 11 8 5 3 2 4 4 2 11 12 2 1 2 4 4 3 3 2 3 3 2 4 5 3 5 3 9 7 8 4 4 6 11 9 11 5 11 7 2 3 2 2 2
12 11 8 7 2 3 5 3 2 6 5 2 1 4 2 6 3 1 1 2 2 2 3 5 4 5 8 13 12 4 6 3 6 8 3 10 5 9 14 4 2 5 1 2
11 9 7 6 4 3 3 3 2 2 2 1 3 0 2 3 2 0 3 1 2 3 4 1 7 4 6 9 12 10 5 3 2 5 10 6 7 16 16 8 3 3 1 4
10 9 6 5 3 3 2 2 3 3 2 2 4 2 1 2 3 4 6 4 3 2 4 6 2 7 9 10 5 6 2 4 5 15 9 5 5 12 12 9 10 3 9 4
10 8 7 4 3 4 2 3 3 3 0 3 3 1 1 2 3 2 4 1 5 4 4 4 13 11 11 6 7 6 5 4 6 6 4 6 11 11 15 11 13 13 16 9
11 9 7 4 2 4 2 2 2 3 2 2 3 3 3 2 2 1 1 4 4 6 7 8 13 12 15 12 10 13 4 3 5 4 13 7 8 15 17 12 22 7 5 6
12 8 7 5 2 5 5 5 2 3 1 2 0 2 3 4 3 1 3 5 2 5 8 10 8 9 13 11 12 11 4 4 2 4 8 3 5 16 8 19 18 18 14 10
12 7 7 6 3 6 9 5 3 2 2 1 5 9 4 7 7 5 2 3 4 7 6 4 5 5 5 4 2 3 6 2 3 2 3 3 8 14 9 6 10 13 11 7
13 8 7 7 4 5 6 8 5 3 4 1 4 3 4 3 3 6 3 5 7 6 3 3 3 3 4 4 7 6 7 1 2 3 2 5 4 19 15 6 7 11 11 10
13 9 8 8 6 6 7 5 5 4 3 1 3 3 1 1 2 2 3 6 7 5 3 2 2 3 4 4 5 5 5 4 3 3 2 2 12 18 13 3 4 7 7 7
13 10 9 8 7 8 7 7 6 4 2 3 2 2 1 2 2 2 4 4 4 4 5 3 2 2 3 2 2 4 4 3 4 4 4 4 19 7 6 3 9 10 7 5
14 12 10 9 8 9 7 5 5 5 4 3 5 17 21 13 9 4 2 3 2 1 3 2 2 2 3 3 2 2 3 2 2 4 2 4 5 5 7 7 6 9 10 11
15 12 11 10 8 8 6 8 7 4 2 3 3 3 7 6 16 19 4 2 1 2 3 2 2 1 2 1 2 3 3 4 3 4 4 5 6 5 8 8 9 8 7 10
15 13 12 10 9 7 8 5 6 5 3 1 5 9 5 3 8 14 21 4 4 3 2 1 1 1 0 2 3 2 2 4 1 3 5 5 5 5 6 5 7 9 9 10
13 14 13 10 9 8 7 5 4 3 3 1 4 16 6 7 12 15 15 8 3 2 2 1 2 2 2 2 1 2 3 2 1 2 1 2 2 3 4 4 6 7 9 10
12 13 13 11 9 7 5 3 4 9 4 1 3 5 5 5 11 8 7 8 3 2 2 2 3 3 2 0 0 2 4 3 4 2 3 4 4 3 4 1 4 8 9 10
14 14 13 10 7 9 4 2 2 9 8 1 3 4 3 5 5 3 3 3 2 2 1 1 2 2 2 1 2 6 6 5 4 4 3 3 5 3 8 9 8 12 13 13
15 14 11 8 5 2 5 4 1 13 4 2 1 3 2 1 2 1 1 1 2 1 2 2 2 2 1 1 5 8 7 6 4 5 5 5 7 7 8 12 10 10 9 10
17 15 12 6 2 2 3 4 4 2 2 2 2 2 3 1 2 1 1 2 0 1 2 3 3 2 2 4 6 9 6 3 0 6 7 6 6 5 7 9 9 9 8 9
20 13 2 2 4 7 13 3 1 1 2 2 2 1 2 3 0 1 2 1 2 1 4 2 3 2 4 6 8 8 9 10 6 7 6 6 6 8 8 9 9 9 8 9
6 3 2 2 8 5 2 2 2 2 3 4 4 5 3 1 3 3 2 2 1 2 3 4 2 3 3 6 8 8 12 14 14 13 11 11 9 7 7 8 9 9 9 10
9 8 5 5 2 2 3 3 3 4 5 3 4 4 4 1 3 3 2 2 1 3 0 2 2 1 9 9 10 9 11 13 13 12 11 11 11 9 10 9 9 8 9 10
10 3 2 3 3 4 5 7 4 3 3 3 2 1 4 1 3 2 2 3 4 1 2 2 1 7 8 8 9 10 11 12 12 12 12 13 14 14 14 12 10 11 13 12
3 4 3 3 4 4 4 4 4 5 3 5 4 2 3 2 2 3 3 4 1 2 2 4 3 8 9 7 7 8 7 10 11 12 14 14 14 14 13 11 11 11 12 13
3 3 4 4 2 3 2 4 2 3 2 5 3 3 3 1 3 2 2 1 3 4 4 3 5 9 9 8 8 8 6 10 11 12 12 13 13 13 11 9 8 8 9 11
2 3 2 3 2 3 1 1 1 1 2 2 3 3 3 3 3 3 5 3 5 3 3 4 8 7 6 8 8 12 15 15 13 13 12 11 10 11 10 9 10 11 12 13
2 3 1 2 3 4 1 1 1 4 2 2 2 5 5 2 3 3 3 4 3 4 6 5 7 9 8 11 15 17 17 15 13 13 11 10 8 8 6 6 6 6 9 10
Wind_Direction
156 166 167 162 143 168 134 115 99 162 171 67 117 127 196 177 249 320 47 351 280 323 294 274 328 305 271 353 352 332 276 293 290 293 264 256 273 354 30 78 358 245 210 272
159 167 163 128 120 104 139 108 130 158 196 129 296 270 244 193 207 40 11 315 360 317 325 317 298 325 319 358 330 336 326 315 312 337 271 51 26 328 325 298 44 287 346 346
161 162 154 128 137 115 117 98 97 353 51 210 173 156 356 27 138 101 24 254 11 338 315 278 290 309 319 329 323 325 353 283 310 295 276 278 292 311 312 173 210 233 115 31
162 163 154 141 136 139 150 48 220 190 211 302 148 135 353 25 347 39 31 356 43 21 299 295 276 302 319 315 285 346 43 269 287 295 292 331 298 290 318 44 355 171 106 95
155 163 179 153 143 155 123 120 112 22 162 166 137 162 124 94 103 75 309 337 309 315 270 250 302 317 315 267 300 356 348 278 312 307 317 38 11 43 45 29 6 86 99 70
165 170 170 169 145 139 85 31 30 101 322 59 98 219 172 77 61 322 332 270 286 291 270 255 273 261 267 246 270 295 276 310 330 285 327 90 24 2 49 49 23 331 77 87
170 167 171 175 133 107 97 51 74 85 279 83 304 61 92 82 53 210 307 17 21 269 288 295 284 260 252 254 255 210 261 330 289 291 325 54 10 16 25 55 33 17 51 61
170 162 171 171 138 135 85 50 81 101 91 6 7 32 60 43 12 4 106 323 254 294 308 352 339 350 8 344 36 46 205 271 308 348 325 119 39 358 347 360 44 24 31 41
176 162 168 161 149 133 124 66 60 92 116 54 307 68 38 88 351 341 326 306 323 17 55 42 5 12 343 341 351 355 19 32 125 337 23 35 0 330 325 266 53 28 20 32
178 166 170 154 138 138 149 85 69 74 98 252 17 93 156 98 59 254 307 326 346 33 20 15 18 348 332 6 15 333 340 353 39 345 28 101 351 327 311 72 360 30 34 34
175 168 165 158 145 139 118 101 72 85 127 280 330 348 126 3 106 150 280 29 354 4 37 24 319 9 324 36 103 348 17 342 3 356 32 343 0 11 51 343 24 19 29 57
171 165 158 162 152 138 122 101 106 77 106 243 278 275 263 232 211 140 340 190 228 184 60 10 331 345 348 358 344 28 30 358 106 21 53 48 33 30 34 23 44 24 23 8
171 166 156 160 149 145 128 114 115 73 44 312 343 282 359 216 229 224 156 302 232 61 162 181 256 292 105 17 289 344 15 32 82 177 75 81 39 29 27 25 25 43 31 22
168 165 159 152 151 135 151 123 134 89 81 5 282 328 320 247 234 191 203 188 59 115 102 123 139 251 255 251 268 101 319 14 350 117 129 125 75 46 13 22 30 34 64 47
159 165 162 149 145 161 136 128 174 207 99 297 289 310 302 275 197 205 202 195 136 98 35 79 233 256 23 305 116 63 19 11 24 262 259 261 120 63 47 29 40 47 47 55
157 157 156 151 140 153 132 27 214 210 195 63 310 301 297 132 153 166 171 169 114 112 132 234 275 261 116 26 80 105 111 67 20 28 81 77 82 41 356 45 46 56 67 55
155 151 153 151 148 167 123 174 104 173 183 198 293 312 278 167 97 46 45 85 112 115 190 234 224 280 108 150 199 143 122 106 70 33 93 69 39 38 25 10 102 88 78 62
148 144 144 140 138 176 255 256 302 151 138 234 267 266 343 134 85 66 3 111 135 155 220 293 214 306 158 82 121 133 133 134 119 91 72 85 85 55 39 33 78 75 61 49
139 138 135 131 134 143 211 170 149 137 107 189 205 207 234 327 79 107 58 60 108 240 208 244 113 339 64 8 93 89 73 87 132 132 112 98 89 74 57 60 58 64 53 46
137 133 102 358 210 152 129 90 117 152 177 215 252 316 262 109 83 206 95 154 217 221 234 117 88 97 89 72 67 72 62 45 81 98 72 54 103 87 74 66 63 61 52 49
146 125 176 257 141 130 83 157 223 152 201 217 216 205 193 236 118 195 185 183 233 265 262 149 152 151 116 108 89 79 80 78 75 86 78 67 79 99 90 74 64 62 60 58
165 122 109 137 120 117 170 204 184 209 220 211 174 209 188 205 109 106 167 207 195 258 243 233 175 99 127 115 106 94 88 87 79 77 79 76 77 79 86 81 69 61 67 69
122 85 173 163 220 177 207 192 195 200 212 193 156 137 138 89 81 83 115 213 234 43 30 233 183 134 125 121 111 99 96 96 94 89 90 89 86 89 93 90 87 83 74 64
97 149 231 217 200 227 196 205 190 232 142 140 125 95 127 168 82 159 106 224 235 266 241 227 147 140 134 123 118 116 103 102 104 106 105 101 99 94 93 93 84 85 74 65
140 178 229 229 258 270 248 229 284 296 192 122 73 51 92 29 123 207 195 223 230 219 230 195 148 140 131 126 124 125 126 128 125 124 120 118 114 110 106 103 98 89 84 72
123 224 287 299 297 337 280 352 190 298 187 73 69 117 139 172 175 165 201 204 221 227 162 139 131 128 128 134 134 138 142 140 135 137 141 136 131 123 116 111 102 91 96 88
209 272 200 191 262 283 302 350 8 345 72 149 152 155 192 143 172 217 186 219 210 152 133 129 136 142 141 135 138 144 146 146 147 146 149 147 146 143 141 136 132 122 105 91
Height
768 774 776 776 775 777 778 780 788 783 788 799 799 803 780 774 776 773 774 775 776 779 781 782 771 768 763 759 756 753 746 744 733 711 696 699 697 700 697 703 704 704 699 699
769 773 774 771 776 776 776 779 784 785 786 802 796 783 775 776 774 774 774 777 777 778 781 786 771 766 759 758 754 753 745 743 739 716 706 703 720 712 710 709 707 701 695 695
770 771 772 771 776 775 776 780 792 789 788 788 785 783 780 777 770 773 774 776 781 782 783 777 777 771 762 759 754 744 746 745 747 745 738 729 724 718 705 706 709 693 691 702
768 770 772 773 774 774 777 782 786 780 800 794 784 783 780 779 777 777 780 782 786 787 788 782 775 768 764 757 750 751 753 752 740 727 717 724 724 719 706 695 693 689 693 703
767 770 775 774 775 775 776 784 783 781 783 778 781 782 778 778 778 781 784 788 784 783 787 782 779 775 768 769 753 756 754 752 738 724 712 728 723 709 716 712 715 705 708 718
768 772 774 775 775 775 776 778 778 780 786 785 792 787 776 777 777 778 780 782 784 786 780 775 769 767 763 764 761 759 760 754 748 731 716 714 728 744 734 735 734 715 712 731
769 771 773 775 775 775 775 779 780 788 797 787 784 772 774 779 780 782 781 781 781 776 770 767 760 757 754 754 753 753 755 753 749 742 725 727 747 749 747 747 750 747 740 749
768 771 772 774 775 777 777 779 781 786 797 788 782 780 780 784 785 785 784 783 779 774 771 774 766 761 751 746 744 744 752 753 758 749 741 740 746 754 756 755 760 761 757 756
768 770 774 774 777 777 779 780 782 783 793 793 786 786 786 793 795 794 784 780 776 774 781 788 774 768 759 754 750 746 745 748 756 753 741 751 763 765 758 753 763 770 770 767
768 770 774 775 777 778 780 782 783 785 796 790 788 792 792 789 794 798 793 787 783 780 797 789 787 774 763 770 770 769 763 762 768 765 756 759 776 766 753 756 776 775 775 775
768 770 773 776 778 779 781 784 785 786 795 791 789 789 789 791 794 799 793 795 791 794 797 793 792 787 777 773 777 773 775 779 775 775 772 776 781 769 769 784 784 778 775 774
769 771 773 777 779 779 782 785 787 788 791 792 789 787 786 786 788 793 794 793 791 793 803 805 797 794 790 783 788 771 774 777 784 783 787 794 795 793 794 789 787 786 784 779
768 772 773 778 779 780 783 786 788 789 792 792 790 784 780 780 782 786 795 793 788 791 793 798 799 796 800 796 788 778 775 779 785 788 795 797 798 797 796 794 792 791 791 789
768 772 775 778 780 782 784 787 790 790 794 797 790 781 779 780 781 782 784 786 787 788 792 796 802 797 786 789 783 786 789 790 791 793 798 800 801 801 800 799 798 794 794 794
769 772 776 778 780 783 786 787 790 792 796 798 792 782 775 774 777 780 783 786 788 792 800 805 803 793 792 788 786 795 793 797 798 806 803 798 802 803 804 803 800 798 797 797
769 773 776 780 781 784 786 790 790 792 795 797 795 784 777 775 776 778 781 783 787 792 795 803 797 786 792 802 786 794 795 797 798 798 801 802 804 805 804 802 801 800 802 802
770 773 777 780 782 784 787 791 790 791 795 796 794 791 777 776 778 782 784 784 787 790 794 795 793 788 786 797 793 795 797 798 800 802 802 805 805 806 805 802 801 804 806 806
771 775 779 782 783 786 788 788 789 791 794 795 793 793 783 776 784 788 786 787 786 789 792 792 790 786 786 795 793 794 797 799 802 803 804 806 808 809 808 807 807 808 809 812
772 777 781 783 785 786 786 789 790 792 795 793 793 791 787 777 784 786 787 788 797 791 794 789 788 796 809 800 798 800 802 804 803 805 807 809 811 813 813 813 814 814 815 816
775 780 782 789 783 785 787 791 791 792 791 793 790 786 788 781 792 788 792 788 788 792 788 782 792 803 807 808 807 808 809 809 806 809 813 814 814 817 819 819 819 819 820 820
776 779 783 783 783 786 788 791 791 789 789 787 783 783 784 777 788 794 790 785 786 784 782 784 782 796 806 811 812 814 815 815 817 819 820 820 819 821 822 823 823 823 822 822
774 777 781 783 784 788 789 788 785 783 781 780 779 777 776 776 776 784 784 780 783 778 779 775 790 805 809 812 815 818 819 820 822 823 824 824 824 825 825 826 827 827 826 825
775 779 781 782 787 785 781 778 774 785 770 769 770 775 771 773 777 783 794 777 779 786 790 794 798 804 812 815 817 820 822 823 824 826 827 827 828 828 829 829 830 830 829 829
777 780 788 776 774 776 769 769 767 760 760 760 764 772 771 779 780 792 791 787 776 776 789 791 802 806 811 815 818 821 825 826 828 829 830 831 832 832 832 833 833 833 832 832
779 777 781 782 765 762 761 760 757 756 755 755 764 769 771 782 774 777 774 777 773 782 789 803 803 808 812 816 820 823 826 828 829 831 832 833 834 834 835 835 835 835 835 834
775 775 777 772 764 760 757 756 755 756 756 758 762 771 769 774 770 773 772 775 783 789 793 797 803 809 813 816 820 823 825 828 830 832 833 834 835 836 836 836 836 836 836 835
772 776 773 773 767 761 758 756 755 753 757 768 756 768 760 769 769 772 770 771 794 790 794 799 803 808 813 816 819 823 826 828 830 832 834 835 836 837 838 838 838 838 838 838